IRIDIUM 162 (43482 NORAD) Tracking and Keplerian Element Data

This shows tracking and keplerian element data for the satellite.

Feedback or suggestion? Click here.




ElementValue
Catalog43482
NameIRIDIUM 162
Epoch Orbit410
Epoch Day171.19562081
Epoch Year2018
RAAN228.2536
Inclination86.4514
Eccentricity0.0002237
Argument of Perigee103.6996
Mean Anonmoly256.4454
Mean Motion14.43278607
Decay Rate4.9E-07
L11 43482U 18047G 18171.19562081 .00000049 00000-0 84547-5 0 9997
L22 43482 86.4514 228.2536 0002237 103.6996 256.4454 14.43278607 4104

Live tracking and technical data element details for IRIDIUM 162 (NORAD 43482). IRIDIUM 162 can be tracked NOW for your location showing map with azimuth and elevation plus other details from your city location.

Track the satellite on the map from your city or location and see movement details for azimuth, elevation, latitude, longitude, range, height, and movement on the map or in text.







IsCatalogInMostPopularTable: catalog: 43482, numindb: 63
Update: records affected: 1



GetName: 43482 IRIDIUM 162

Hit Count: updated at: Fri, 16 Nov 2018 03:41:42 GMT